TimeEDT,TemperatureF,Dew PointF,Humidity,Sea Level PressureIn,VisibilityMPH,Wind Direction,Wind SpeedMPH,Gust SpeedMPH,PrecipitationIn,Events,Conditions,WindDirDegrees,DateUTC
12:53 AM,81.0,72.0,74,29.94,10.0,Calm,Calm,-,N/A,,Scattered Clouds,0,2013-08-07 04:53:00
1:53 AM,82.0,73.0,74,29.93,10.0,ESE,3.5,-,N/A,,Scattered Clouds,110,2013-08-07 05:53:00
2:53 AM,82.9,73.9,74,29.91,10.0,Calm,Calm,-,N/A,,Partly Cloudy,0,2013-08-07 06:53:00
3:53 AM,81.0,73.0,77,29.92,10.0,Calm,Calm,-,N/A,,Scattered Clouds,0,2013-08-07 07:53:00
4:53 AM,82.0,73.0,74,29.91,10.0,SE,4.6,-,N/A,,Scattered Clouds,130,2013-08-07 08:53:00
5:53 AM,82.9,73.0,72,29.92,10.0,SE,3.5,-,N/A,,Scattered Clouds,130,2013-08-07 09:53:00
6:53 AM,82.0,73.0,74,29.93,10.0,SE,4.6,-,N/A,,Scattered Clouds,140,2013-08-07 10:53:00
7:53 AM,84.0,73.9,72,29.94,10.0,SE,5.8,-,N/A,,Scattered Clouds,140,2013-08-07 11:53:00
8:53 AM,86.0,73.0,65,29.96,10.0,SSE,8.1,-,N/A,,Scattered Clouds,150,2013-08-07 12:53:00
9:38 AM,87.8,71.6,58,29.96,10.0,SE,10.4,-,N/A,,Mostly Cloudy,130,2013-08-07 13:38:00
9:53 AM,84.9,72.0,65,29.97,10.0,SSE,15.0,-,N/A,,Mostly Cloudy,160,2013-08-07 13:53:00
10:09 AM,86.0,71.6,62,29.97,10.0,SSE,8.1,-,0.00,Rain,Light Rain,160,2013-08-07 14:09:00
10:53 AM,88.0,73.0,61,29.97,10.0,SE,11.5,-,0.00,,Mostly Cloudy,130,2013-08-07 14:53:00
11:53 AM,89.1,73.9,61,29.97,10.0,SSE,13.8,-,N/A,,Mostly Cloudy,150,2013-08-07 15:53:00
12:53 PM,87.1,71.1,59,29.97,10.0,SE,11.5,-,N/A,,Mostly Cloudy,140,2013-08-07 16:53:00
1:53 PM,87.1,73.9,65,29.98,10.0,SE,16.1,26.5,N/A,,Mostly Cloudy,140,2013-08-07 17:53:00
2:53 PM,88.0,72.0,59,29.96,10.0,SSE,12.7,-,0.00,,Mostly Cloudy,160,2013-08-07 18:53:00
3:53 PM,90.0,71.1,54,29.94,10.0,SSE,12.7,-,N/A,,Mostly Cloudy,160,2013-08-07 19:53:00
4:53 PM,88.0,71.1,57,29.94,10.0,SSE,10.4,-,N/A,,Mostly Cloudy,160,2013-08-07 20:53:00
5:53 PM,87.1,73.9,65,29.94,10.0,SE,10.4,-,N/A,,Mostly Cloudy,140,2013-08-07 21:53:00
6:53 PM,88.0,72.0,59,29.93,10.0,SE,11.5,-,N/A,,Mostly Cloudy,140,2013-08-07 22:53:00
7:53 PM,86.0,73.0,65,29.94,10.0,SE,9.2,-,N/A,,Mostly Cloudy,140,2013-08-07 23:53:00
8:53 PM,84.9,72.0,65,29.94,10.0,SE,6.9,-,N/A,,Scattered Clouds,130,2013-08-08 00:53:00
9:53 PM,84.9,72.0,65,29.96,10.0,SE,9.2,-,N/A,,Scattered Clouds,130,2013-08-08 01:53:00
10:53 PM,84.9,73.0,67,29.99,10.0,SE,10.4,-,N/A,,Scattered Clouds,130,2013-08-08 02:53:00
11:53 PM,84.9,73.0,67,29.98,10.0,SE,9.2,-,N/A,,Scattered Clouds,130,2013-08-08 03:53:00